This is the latest recevied weather packets stored in our database for station/object N0QV. If no packets are shown the sender has not sent any weather packets the latest 10 day(s).
| Time | Temp. | Humidity | Pressure | Rain* | Wind** | Luminosity | Snow |
|---|---|---|---|---|---|---|---|
| 1777818160 | 16.11° C | 45% | 1007.9 hPa | 0 mm | - | 416 W/m² | - |
| 1777817857 | 16.11° C | 45% | 1008 hPa | 0 mm | - | 391 W/m² | - |
| 1777817554 | 16.11° C | 48% | 1007.9 hPa | 0 mm | - | 370 W/m² | - |
| 1777817251 | 15.56° C | 48% | 1008.1 hPa | 0 mm | - | 393 W/m² | - |
| 1777816948 | 15° C | 49% | 1007.9 hPa | 0 mm | - | 369 W/m² | - |
| 1777816644 | 15° C | 49% | 1008 hPa | 0 mm | - | 354 W/m² | - |
| 1777816341 | 14.44° C | 49% | 1007.9 hPa | 0 mm | - | 336 W/m² | - |
| 1777816039 | 14.44° C | 51% | 1007.8 hPa | 0 mm | - | 320 W/m² | - |
| 1777815736 | 13.89° C | 51% | 1007.7 hPa | 0 mm | - | 302 W/m² | - |
| 1777815434 | 13.89° C | 51% | 1007.8 hPa | 0 mm | - | 278 W/m² | - |
| 1777815131 | 13.33° C | 53% | 1007.5 hPa | 0 mm | - | 269 W/m² | - |
| 1777814827 | 13.33° C | 53% | 1007.6 hPa | 0 mm | - | 260 W/m² | - |
| 1777814523 | 13.33° C | 53% | 1007.4 hPa | 0 mm | - | 244 W/m² | - |
| 1777814221 | 12.78° C | 53% | 1007.3 hPa | 0 mm | - | 217 W/m² | - |
| 1777813917 | 12.78° C | 54% | 1007.4 hPa | 0 mm | - | 210 W/m² | - |
| 1777813615 | 12.78° C | 54% | 1007.3 hPa | 0 mm | - | 193 W/m² | - |
| 1777813312 | 12.22° C | 55% | 1007.4 hPa | 0 mm | - | 181 W/m² | - |
| 1777813009 | 12.22° C | 56% | 1007.1 hPa | 0 mm | - | 171 W/m² | - |
| 1777812708 | 12.22° C | 56% | 1007 hPa | 0 mm | - | 153 W/m² | - |
| 1777812403 | 12.22° C | 56% | 1007.1 hPa | 0 mm | - | 139 W/m² | - |
| 1777812102 | 12.22° C | 56% | 1007 hPa | 0 mm | - | 118 W/m² | - |
| 1777811800 | 12.22° C | 56% | 1006.7 hPa | 0 mm | - | 113 W/m² | - |
| 1777811497 | 12.22° C | 57% | 1006.7 hPa | 0 mm | - | 104 W/m² | - |
| 1777811193 | 12.22° C | 57% | 1006.6 hPa | 0 mm | - | 96 W/m² | - |
| 1777810891 | 12.22° C | 57% | 1006.4 hPa | 0 mm | - | 67 W/m² | - |
* Rain latest hour (hover to see other rain measurements)
** Current wind speed in m/s (hover to see current wind gust speed)